Brainerd, MN

1:31 PM CST on February 27, 2017 (GMT -0600)
Brainerd-Crow Wing County Regional

Weather History for KBRD - December, 2011

Change the Weather History Date:

Monday, December 12, 2011

  Actual Average Record
Temperature  
Mean Temperature 34 °F -  
Max Temperature 37 °F 27 °F 48 °F (1998)
Min Temperature 30 °F 5 °F -20 °F (2000)
Degree Days  
Heating Degree Days 32    
Moisture  
Dew Point 26 °F    
Average Humidity 76    
Maximum Humidity 82    
Minimum Humidity 67    
Precipitation  
Precipitation 0.00 in - - ()
Sea Level Pressure  
Sea Level Pressure 30.24 in    
Wind  
Wind Speed 4 mph (North)    
Max Wind Speed 8 mph    
Max Gust Speed -    
Visibility 7 miles    
Events      
Averages and records for this station are not official NWS values.
T = Trace of Precipitation, MM = Missing Value Source: NWS Daily Summary

Daily Weather History Graph

Daily Weather History Graph

Search for Another Location

Airport or City:

Trip Planner

Search our weather history database for the weather conditions in past years. The results will help you decide how hot, cold, wet, or windy it might be!

Date:

Astronomy

Dec. 12, 2011 Rise Set
Actual Time 7:50 AM CST 4:29 PM CST
Civil Twilight 7:15 AM CST 5:04 PM CST
Nautical Twilight 6:37 AM CST 5:42 PM CST
Astronomical Twilight 6:01 AM CST 6:19 PM CST
Moon 6:44 PM CST (12/12) 9:20 AM CST (12/12)
Length of Visible Light 9h 48m
Length of Day
8h 39m
Waning Gibbous, 95% of the Moon is Illuminated
Dec 12
Waning Gibbous
Dec 17
Last Quarter
Dec 24
New
Jan 1
First Quarter
Jan 9
Full

Hourly Weather History & Observations

Time (CST) Temp. Windchill Dew Point Humidity Pressure Visibility Wind Dir Wind Speed Gust Speed Precip Events Conditions
12:25 AM 33.8 °F 29.6 °F 26.6 °F 75% 30.05 in 6.0 mi South 4.6 mph - N/A   Haze
12:53 AM 34.0 °F 31.0 °F 27.0 °F 75% 30.09 in 6.0 mi South 3.5 mph - N/A   Haze
1:53 AM 34.0 °F - 27.0 °F 75% 30.09 in 6.0 mi Calm Calm - N/A   Haze
2:53 AM 33.1 °F 30.0 °F 27.0 °F 78% 30.09 in 6.0 mi SE 3.5 mph - N/A   Haze
3:53 AM 33.1 °F - 27.0 °F 78% 30.10 in 5.0 mi Calm Calm - N/A   Haze
4:53 AM 32.0 °F - 27.0 °F 82% 30.12 in 5.0 mi Calm Calm - N/A   Haze
5:53 AM 33.1 °F - 27.0 °F 78% 30.13 in 6.0 mi Calm Calm - N/A   Haze
6:53 AM 33.1 °F 30.0 °F 27.0 °F 78% 30.15 in 6.0 mi North 3.5 mph - N/A   Haze
8:53 AM 33.1 °F - 27.0 °F 78% 30.18 in 4.0 mi Calm Calm - N/A   Haze
9:53 AM 35.1 °F 31.0 °F 27.0 °F 72% 30.20 in 5.0 mi North 4.6 mph - N/A   Haze
10:53 AM 35.1 °F - 28.0 °F 76% 30.21 in 5.0 mi Calm Calm - N/A   Haze
11:53 AM 36.0 °F 32.1 °F 27.0 °F 70% 30.21 in 5.0 mi North 4.6 mph - N/A   Haze
12:53 PM 37.0 °F 33.3 °F 27.0 °F 67% 30.21 in 6.0 mi North 4.6 mph - N/A   Haze
1:53 PM 36.0 °F 33.3 °F 27.0 °F 70% 30.22 in 6.0 mi NNE 3.5 mph - N/A   Haze
2:53 PM 36.0 °F 33.3 °F 27.0 °F 70% 30.23 in 6.0 mi NE 3.5 mph - N/A   Haze
3:53 PM 36.0 °F 32.1 °F 27.0 °F 70% 30.25 in 6.0 mi NNE 4.6 mph - N/A   Haze
4:53 PM 35.1 °F 31.0 °F 27.0 °F 72% 30.28 in 6.0 mi North 4.6 mph - N/A   Haze
5:53 PM 33.1 °F 26.1 °F 27.0 °F 78% 30.30 in 6.0 mi North 8.1 mph - N/A   Haze
6:53 PM 32.0 °F 25.6 °F 26.1 °F 79% 30.32 in 6.0 mi NNE 6.9 mph - N/A   Haze
7:53 PM 32.0 °F 26.4 °F 25.0 °F 75% 30.33 in 7.0 mi North 5.8 mph - N/A   Overcast
8:06 PM 30.2 °F 23.4 °F 24.8 °F 80% 30.29 in 7.0 mi North 6.9 mph - N/A   Overcast
8:35 PM 30.2 °F 25.4 °F 24.8 °F 80% 30.29 in 8.0 mi North 4.6 mph - N/A   Overcast
8:53 PM 30.9 °F 25.2 °F 24.1 °F 76% 30.34 in 8.0 mi North 5.8 mph - N/A   Overcast
9:06 PM 30.2 °F 25.4 °F 24.8 °F 80% 30.29 in 8.0 mi North 4.6 mph - N/A   Overcast
9:19 PM 30.2 °F 22.6 °F 24.8 °F 80% 30.29 in 8.0 mi North 8.1 mph - N/A   Overcast
9:53 PM 30.9 °F 25.2 °F 24.1 °F 76% 30.35 in 8.0 mi North 5.8 mph - N/A   Overcast
10:02 PM 30.2 °F 26.7 °F 24.8 °F 80% 30.30 in 8.0 mi NNW 3.5 mph - N/A   Overcast
10:09 PM 30.2 °F 25.4 °F 24.8 °F 80% 30.30 in 8.0 mi North 4.6 mph - N/A   Overcast
10:16 PM 30.2 °F 25.4 °F 24.8 °F 80% 30.30 in 8.0 mi North 4.6 mph - N/A   Overcast
10:29 PM 30.2 °F 23.4 °F 24.8 °F 80% 30.30 in 8.0 mi North 6.9 mph - N/A   Overcast
10:53 PM 30.9 °F 27.5 °F 24.1 °F 76% 30.35 in 8.0 mi North 3.5 mph - N/A   Overcast
11:05 PM 30.2 °F 26.7 °F 24.8 °F 80% 30.30 in 8.0 mi North 3.5 mph - N/A   Overcast
11:30 PM 30.2 °F 26.7 °F 24.8 °F 80% 30.31 in 8.0 mi North 3.5 mph - N/A   Overcast
11:53 PM 30.9 °F 26.2 °F 24.1 °F 76% 30.36 in 8.0 mi North 4.6 mph - N/A   Overcast